Theta_e
330 326 328 329 327 324 326 325 325 328 340 341 340 338 337 340 341 338 342 338 340 339 333 331 331 332 333 332 332 332 332 332 332 333 336 334 334 333 331 330 327 325 324 330 331 333 334 335 335
319 325 327 329 324 327 325 324 323 325 342 343 342 342 342 342 343 342 341 341 342 339 332 332 332 333 333 333 332 334 334 334 331 327 324 323 320 317 316 315 313 312 312 313 315 318 321 324 329
317 320 328 325 324 327 327 323 323 336 342 341 343 343 343 343 341 340 342 342 339 332 333 332 333 334 333 334 334 336 334 328 320 316 314 313 312 310 309 309 308 308 308 308 309 309 309 310 312
320 320 326 327 327 325 327 329 327 334 338 342 343 341 343 342 340 341 341 340 336 332 333 334 335 334 335 335 335 333 326 317 315 313 311 310 309 308 308 308 309 309 309 309 309 309 309 309 309
315 325 328 327 328 325 324 330 329 330 334 341 341 341 342 343 342 340 340 339 334 333 334 335 336 338 338 334 332 324 317 314 312 310 309 308 308 308 309 309 309 309 309 308 308 308 309 309 309
318 322 324 332 327 326 327 328 328 330 337 340 341 342 343 342 341 340 338 339 337 334 336 337 339 337 335 332 324 318 314 311 310 309 308 308 308 309 309 309 308 307 307 307 306 306 306 306 306
319 317 321 325 326 327 326 328 327 330 338 340 341 340 343 342 340 339 338 338 338 337 337 338 338 336 334 328 320 315 311 310 309 309 308 308 309 309 309 308 307 307 307 307 306 306 306 307 307
320 317 321 322 328 328 326 326 326 331 335 341 340 340 343 341 340 339 338 338 336 335 337 337 337 335 332 325 317 312 311 310 309 309 309 309 309 308 308 307 307 307 306 306 306 306 306 306 307
319 318 319 323 326 327 327 326 331 334 340 339 339 340 341 341 340 339 338 338 337 337 337 338 337 334 328 322 315 312 311 310 309 309 309 309 308 307 308 307 307 306 306 306 306 305 306 307 308
319 317 319 318 321 326 326 326 333 336 338 339 341 340 342 341 340 339 339 339 338 337 336 337 335 330 327 322 313 312 310 310 309 310 309 308 308 308 307 306 306 306 306 306 305 305 306 308 309
318 319 319 320 321 319 326 327 328 334 334 339 341 343 341 340 340 339 339 338 337 337 334 334 331 329 327 321 313 312 310 310 310 310 308 308 308 307 307 307 307 307 306 305 305 304 305 305 307
319 319 320 320 320 320 318 325 327 330 331 338 340 340 341 340 340 339 339 338 338 337 335 332 331 331 327 319 313 311 310 310 310 309 308 308 307 308 308 309 308 306 305 305 305 304 303 304 305
318 318 319 320 320 319 318 318 324 327 330 338 341 342 341 340 340 339 339 339 338 338 336 334 332 332 328 318 313 311 310 310 310 309 308 307 308 308 308 308 308 306 306 305 305 305 304 302 303
317 318 319 318 318 317 317 320 323 324 329 338 340 341 340 340 340 340 339 339 339 338 337 335 333 332 326 317 313 311 310 310 310 309 308 308 308 308 308 308 308 306 306 305 305 305 304 303 302
317 319 317 317 318 316 319 323 320 326 332 338 340 340 340 340 340 340 340 340 339 338 337 335 334 332 326 319 314 312 311 310 310 309 308 308 308 308 308 308 309 306 306 305 305 305 305 304 303
318 315 317 315 316 317 320 322 318 331 334 337 338 340 340 341 341 339 339 339 338 336 335 334 334 331 325 321 315 312 311 310 310 309 308 308 308 308 308 308 309 306 306 305 305 305 305 305 304
317 314 315 315 314 316 319 322 317 335 335 336 337 339 339 338 340 339 338 338 337 336 336 335 333 329 326 322 316 313 311 310 310 310 309 307 307 308 308 308 308 306 306 306 305 305 305 305 304
315 314 314 315 314 316 317 318 320 327 333 334 335 336 337 335 338 339 338 337 335 336 336 332 330 326 324 323 318 314 312 311 310 310 310 308 307 307 307 309 306 306 306 306 306 305 305 305 305
314 313 315 314 313 317 318 317 321 324 327 330 334 335 335 334 337 338 336 336 335 335 334 330 327 326 325 322 317 314 312 311 310 310 310 309 306 307 307 308 306 306 306 306 306 306 306 306 306
312 313 314 313 314 316 316 316 315 318 323 327 331 333 335 336 336 337 335 334 333 334 332 329 327 325 322 317 315 314 312 311 310 310 310 309 307 307 310 306 307 307 307 307 307 307 307 307 306
311 311 312 314 312 313 317 318 314 314 313 324 328 330 334 336 337 335 334 332 333 331 329 327 325 323 318 315 314 313 312 311 310 310 310 307 308 310 306 307 308 308 308 308 308 308 308 307 307
311 309 312 312 315 316 311 318 312 312 312 310 321 328 331 333 335 334 333 332 330 328 322 318 317 316 314 313 313 313 312 310 310 310 308 309 309 306 308 309 308 308 308 308 308 308 308 308 307
309 310 311 312 309 311 311 311 313 309 312 310 309 319 328 332 334 333 330 327 323 316 313 312 312 311 311 312 313 312 311 310 310 308 310 307 307 308 308 308 308 307 307 307 307 307 307 307 307
310 311 312 310 311 313 311 311 312 310 311 310 309 311 317 326 328 325 322 317 314 312 311 311 310 311 311 312 312 311 310 310 309 309 306 308 308 308 307 306 305 305 305 304 304 305 305 306 306
309 311 311 317 319 314 308 309 313 310 309 309 308 311 312 316 316 315 314 313 311 310 309 310 310 310 311 311 310 310 309 310 306 307 308 308 307 306 306 305 304 303 302 302 302 302 303 305 305
309 311 311 315 311 309 306 310 309 309 310 310 311 310 311 313 313 313 312 311 311 310 310 310 310 310 310 310 310 310 308 306 307 307 307 306 306 305 304 303 302 302 302 302 302 302 302 303 304
310 307 307 307 305 305 305 308 310 308 308 309 309 312 313 313 313 312 313 313 312 311 310 310 310 310 310 310 309 306 307 307 307 306 306 306 305 304 303 302 303 303 303 304 304 303 303 302 302
308 305 311 307 312 314 308 310 304 306 309 310 310 311 312 312 313 313 313 313 312 311 311 311 311 310 309 307 306 306 306 307 306 306 306 305 303 302 303 304 304 303 303 303 303 303 303 303 303
309 309 307 307 309 311 311 312 307 308 308 308 310 312 312 313 313 313 313 313 311 310 309 307 307 306 306 306 306 306 306 306 306 305 304 303 302 303 303 303 303 302 302 302 302 302 303 303 303
307 308 306 309 310 305 308 310 307 306 307 308 309 311 312 313 313 313 313 311 310 309 308 307 306 306 306 306 306 306 306 306 305 303 303 303 303 302 302 302 302 302 302 301 301 301 302 302 302
Wind_Speed
17 7 5 6 3 3 4 6 2 2 2 1 8 4 5 7 3 3 18 18 18 17 17 15 12 10 9 8 6 6 5 5 5 5 4 3 4 4 5 6 7 7 7 6 6 7 7 9 9
17 10 7 3 4 3 5 4 5 5 13 23 18 11 5 3 6 17 23 20 15 15 16 15 13 11 9 7 6 5 5 4 3 3 3 4 5 6 7 7 8 8 8 8 8 9 10 11 11
13 12 6 4 4 6 5 4 4 4 22 3 7 9 5 4 14 26 17 21 18 18 16 14 12 10 8 7 6 5 2 3 3 4 4 5 6 7 8 9 9 9 10 10 11 11 12 12 12
9 9 2 3 6 6 6 4 3 7 4 4 17 8 8 8 19 15 21 17 18 19 16 14 12 10 8 6 4 2 2 3 3 4 5 6 7 8 8 9 10 12 12 13 13 14 15 15 15
14 5 3 4 6 4 5 2 4 4 2 7 5 5 5 17 11 21 19 16 18 19 16 13 11 10 7 4 2 1 2 3 4 5 6 6 7 8 9 10 12 13 13 14 13 13 14 15 16
7 2 4 13 4 4 4 11 0 2 5 7 9 9 4 15 23 22 20 16 13 17 16 13 12 8 6 3 1 1 2 3 5 5 6 8 8 8 10 12 12 12 13 13 14 14 14 14 15
4 3 4 7 7 5 5 11 6 5 10 4 19 5 11 25 24 22 20 15 14 13 13 12 10 8 6 3 1 1 2 3 4 6 7 8 10 10 10 12 13 13 14 15 15 15 16 17 16
3 2 3 5 13 12 6 9 2 10 2 19 14 7 10 31 25 22 18 16 12 12 10 12 11 8 5 3 1 1 3 4 5 6 7 9 9 10 12 12 13 15 16 16 16 17 17 17 17
4 2 3 5 10 4 3 3 3 6 18 5 7 13 22 34 28 25 23 20 18 16 13 13 11 8 5 3 0 2 4 4 5 7 8 9 9 10 11 13 15 16 17 18 18 19 19 19 18
5 3 5 3 1 1 5 6 11 7 10 2 6 14 35 34 30 28 28 24 22 19 16 15 11 9 5 2 1 2 4 5 6 7 8 9 9 11 12 13 15 16 17 18 18 18 18 18 18
8 4 4 3 1 7 1 2 3 13 4 12 21 28 37 36 31 28 26 24 21 17 14 15 12 8 5 3 2 3 4 6 7 7 7 8 9 9 11 13 15 15 16 17 17 16 16 17 18
4 12 6 3 3 7 4 8 3 3 2 15 23 30 41 36 33 30 29 26 23 18 14 13 11 8 5 4 3 4 5 6 7 7 7 7 8 9 11 14 16 17 18 18 18 18 18 17 17
1 4 18 13 13 14 11 7 4 6 5 11 23 34 38 36 32 29 27 25 22 19 16 13 11 8 6 5 5 4 5 5 6 6 6 6 7 9 12 14 17 19 19 19 18 18 18 18 17
2 6 9 5 10 12 5 5 8 8 11 17 22 34 35 34 32 30 29 26 23 18 16 14 12 10 8 7 6 6 5 5 6 6 6 6 6 9 12 15 18 20 20 20 20 20 20 20 20
2 2 3 6 7 4 1 2 5 10 15 20 21 24 31 30 28 29 28 25 21 16 16 15 12 11 9 8 7 7 7 5 6 7 7 6 7 9 12 16 19 19 20 20 19 18 19 18 18
1 4 2 3 7 8 8 4 3 18 22 19 17 23 29 28 28 25 25 23 18 16 15 15 13 12 10 9 9 9 8 7 7 7 7 7 8 10 13 16 18 19 19 20 19 20 19 18 20
3 4 5 4 11 4 5 4 4 19 19 21 19 18 24 26 27 27 24 22 18 15 13 14 14 12 11 11 11 11 10 8 8 7 8 8 9 11 13 16 18 19 18 18 19 20 22 20 19
5 2 3 4 5 5 4 3 5 16 20 23 21 19 22 23 28 28 23 19 16 16 14 13 13 13 13 13 13 12 11 10 8 8 9 9 10 11 13 16 17 16 16 17 17 18 18 20 19
7 3 3 3 3 4 2 4 5 7 8 11 17 22 22 23 22 24 20 15 17 18 17 15 14 14 14 13 13 12 12 10 9 9 10 11 10 11 14 15 15 15 15 17 18 18 18 18 18
4 1 5 1 1 3 1 3 1 3 4 17 22 22 22 21 19 21 16 16 18 17 17 16 16 15 13 12 12 12 11 11 10 10 10 10 9 12 14 14 13 14 14 15 17 18 18 18 19
2 6 4 5 3 6 5 5 4 1 1 10 16 19 21 22 22 17 17 18 19 17 16 17 17 17 14 13 13 12 12 11 10 10 10 9 10 12 13 12 12 14 15 16 16 17 17 17 15
4 1 3 6 4 4 4 3 5 4 4 3 14 16 16 17 14 16 19 19 18 17 17 18 18 17 14 14 13 12 12 11 9 10 8 9 11 11 11 13 14 15 16 16 17 18 18 17 16
2 0 4 3 6 5 3 5 6 1 6 7 8 13 16 12 15 18 18 18 17 17 18 18 17 15 14 12 12 11 10 9 9 8 9 10 9 11 14 16 17 17 17 18 18 18 19 18 18
2 4 7 6 4 3 2 4 5 4 5 3 5 9 10 18 17 18 17 16 14 13 11 11 11 11 10 10 10 9 8 7 7 8 9 9 12 13 15 17 19 19 20 20 21 21 20 20 19
7 6 3 1 1 4 4 3 6 6 5 3 10 16 10 13 16 15 12 10 8 8 7 8 8 7 7 7 7 7 6 7 7 8 10 12 14 16 18 20 21 21 21 21 21 22 22 21 20
3 2 5 3 4 4 2 4 5 2 6 7 10 16 15 14 12 10 8 7 6 5 5 5 5 5 5 5 6 6 6 6 8 10 12 14 17 19 20 20 20 20 20 21 21 22 21 22 22
2 1 4 6 4 4 2 4 3 7 7 10 14 19 15 11 10 10 8 6 5 5 4 4 4 5 5 5 5 5 6 8 11 13 15 18 21 22 21 20 20 21 21 21 22 23 23 22 21
1 5 3 2 4 3 4 1 4 5 3 2 7 13 13 11 10 9 7 5 3 3 4 4 4 5 5 5 6 7 9 12 14 16 19 20 20 19 19 19 21 22 22 22 23 23 23 24 22
0 1 4 4 3 4 3 4 5 5 5 6 4 7 9 9 9 7 5 3 2 1 2 3 4 5 6 7 9 11 12 14 16 19 20 20 19 19 19 20 21 22 23 23 23 23 24 24 24
1 2 1 3 2 3 2 3 2 3 6 1 3 4 5 7 7 5 4 2 1 2 4 4 5 6 8 10 12 13 15 17 18 19 19 20 20 21 21 22 23 23 23 23 23 24 24 24 24
Wind_Direction
200 188 154 146 91 71 258 253 228 164 97 72 146 164 145 71 138 182 140 153 159 164 161 157 154 147 137 126 118 104 86 71 62 55 49 23 3 348 333 326 330 327 328 323 312 311 320 321 322
200 197 166 156 118 154 249 251 213 195 132 111 101 104 57 75 108 137 144 147 158 167 162 158 155 150 142 134 122 101 78 66 31 353 337 332 333 334 334 334 332 332 328 320 309 302 295 290 290
194 188 175 148 171 192 213 218 229 140 148 133 112 89 90 107 134 140 145 149 160 163 162 159 156 152 145 136 119 103 76 10 1 5 360 350 346 341 339 337 335 331 326 320 314 308 302 298 293
181 177 190 158 193 239 197 217 235 122 191 189 130 80 91 122 132 146 150 150 160 163 163 162 159 155 147 133 118 99 9 9 10 359 352 346 342 344 343 338 333 327 321 316 313 309 305 301 296
176 159 184 178 208 251 242 235 172 158 127 160 164 140 86 156 160 154 151 153 163 161 162 163 162 154 147 139 122 46 21 11 360 349 341 340 346 348 341 334 329 327 325 321 320 316 310 305 302
175 178 199 205 207 230 231 211 164 144 137 150 117 100 107 152 156 155 155 151 167 168 163 165 165 165 159 151 135 41 18 3 348 340 343 344 346 344 339 337 338 338 336 332 332 325 316 311 307
161 122 203 185 181 223 228 220 189 191 153 182 139 85 144 155 155 153 150 151 154 166 169 173 173 174 172 168 151 16 9 358 346 343 345 348 345 346 346 348 347 343 339 339 334 327 322 318 316
218 117 174 199 186 215 198 164 286 184 133 148 147 152 167 163 155 158 162 163 169 171 184 186 184 184 185 185 173 15 1 353 348 351 349 351 351 350 350 353 345 345 344 340 336 330 327 326 324
180 40 185 189 179 171 161 153 100 144 143 168 181 161 172 159 164 168 173 175 179 188 197 197 194 191 188 189 246 353 352 353 356 354 355 355 355 356 353 352 350 348 347 343 337 335 335 332 330
173 138 215 213 323 202 210 197 147 143 141 137 157 158 160 162 171 179 182 185 187 192 193 196 194 195 199 220 262 335 351 355 357 359 357 359 1 358 358 360 359 355 349 343 344 343 340 337 333
174 184 221 269 50 29 325 232 192 152 203 190 173 160 164 169 178 186 192 195 192 193 190 186 192 198 211 233 268 322 345 356 356 358 3 2 359 2 10 9 3 354 351 350 348 345 341 341 339
176 231 262 295 43 2 1 313 305 167 182 202 180 169 169 174 182 190 195 195 196 198 197 198 198 204 222 247 281 317 338 351 352 356 1 359 7 12 10 5 359 356 354 353 350 349 346 342 343
150 208 243 263 314 308 310 270 272 177 141 167 171 171 175 180 187 192 202 200 202 206 210 210 211 216 235 254 277 303 325 342 347 352 357 2 8 5 4 1 360 356 355 353 353 350 349 346 346
148 271 247 312 295 309 285 305 196 195 175 168 174 175 181 186 190 192 199 204 207 211 219 218 217 222 234 251 274 295 315 330 339 343 349 355 353 355 356 357 357 354 353 355 354 351 351 352 347
117 215 315 271 262 306 3 271 241 198 172 172 178 183 188 192 193 198 202 204 213 216 224 224 225 230 239 254 270 286 301 313 324 333 340 342 339 342 350 351 352 351 350 353 354 352 351 349 349
83 86 143 220 213 253 179 233 220 177 169 166 173 182 194 198 196 202 211 213 216 223 230 228 230 236 246 260 269 279 287 301 316 323 331 328 324 335 342 344 345 347 348 351 353 350 355 357 356
232 184 185 326 195 167 166 210 178 178 183 161 173 185 190 201 210 205 212 216 222 231 235 238 238 243 251 260 266 273 283 292 302 313 320 319 320 327 332 338 340 344 344 345 351 356 351 356 4
183 223 164 200 194 184 156 204 151 181 188 179 173 200 208 207 213 203 205 211 220 227 238 240 240 243 249 257 266 274 280 286 300 305 314 319 317 320 326 334 336 337 342 345 349 355 355 352 359
162 179 127 244 242 103 190 151 178 159 187 180 187 208 213 214 204 203 198 206 227 224 236 239 242 250 257 266 272 277 280 285 288 300 314 316 312 315 325 329 331 338 345 347 348 351 353 353 356
92 219 172 262 11 102 111 74 118 164 200 203 203 209 212 211 198 191 196 211 220 231 243 242 247 251 258 264 274 278 279 280 287 300 311 310 313 319 321 324 332 338 342 344 343 343 345 350 353
295 201 186 157 134 53 115 360 341 313 234 218 216 218 214 211 198 189 198 211 225 234 243 250 250 252 256 264 270 277 280 284 289 300 306 306 312 315 319 327 329 328 328 330 332 333 335 336 344
179 266 174 138 91 151 30 229 276 259 258 223 226 226 223 211 195 196 202 213 226 239 246 250 249 250 256 261 265 272 281 283 291 298 301 307 310 316 318 319 320 319 318 319 321 322 323 324 327
164 188 129 92 90 107 5 72 262 198 248 247 239 232 235 230 219 213 211 220 231 244 256 255 252 251 251 253 258 272 280 282 291 296 305 311 315 315 315 315 315 315 314 314 315 313 312 314 314
153 88 43 44 70 44 355 120 289 231 247 190 234 223 220 221 216 212 212 224 242 258 258 250 242 238 237 243 259 269 270 277 286 297 309 311 309 309 309 311 311 312 311 310 309 307 304 302 300
66 69 43 26 5 207 315 52 225 311 328 290 207 204 191 186 191 201 216 236 248 249 244 236 227 223 227 239 246 257 264 283 300 305 307 308 309 310 312 312 312 311 310 310 307 305 303 299 296
35 116 145 159 158 215 283 229 255 200 307 294 230 195 173 175 184 202 212 217 220 224 218 212 204 201 206 220 238 260 281 288 297 303 307 309 311 312 312 311 311 311 312 312 310 307 303 297 295
177 230 133 100 32 64 237 284 11 358 21 53 122 144 155 168 182 192 195 194 198 203 197 190 190 198 213 235 250 257 270 289 299 301 304 308 309 309 309 312 314 313 313 312 310 309 305 297 294
177 165 82 6 128 216 300 343 231 343 316 112 130 151 167 173 176 180 180 185 194 201 206 210 216 222 234 250 263 280 290 296 300 302 304 305 306 307 307 311 312 312 312 311 309 307 302 299 297
284 313 46 108 103 151 132 272 208 235 280 244 211 185 188 190 185 174 168 162 171 216 262 274 263 261 269 275 277 282 289 294 298 302 304 304 305 305 306 307 307 309 310 310 308 304 301 298 297
240 324 89 116 194 46 121 261 347 343 353 27 203 184 176 171 160 154 143 130 82 319 306 292 276 273 276 281 285 292 297 299 302 303 303 303 303 304 305 306 308 309 310 310 309 306 303 301 300